Regional Weather Roundup
Issued by NWS

Home | Current Version | Previous Version | Graphics & Text | Print | Product List | Glossary On
Versions: 1 2 3 4 5 6 7 8 9 10 11 12 13 14 15 16 17 18 19 20 21 22 23 24 25 26 27 28 29 30 31 32 33 34 35 36 37 38 39 40 41 42 43 44 45 46 47 48 49 50
000
ASUS43 KLMK 280210
RWRKY
KENTUCKY REGIONAL WEATHER ROUNDUP
NATIONAL WEATHER SERVICE LOUISVILLE KY
1000 PM EDT SUN JUL 27 2014

NOTE "FAIR" INDICATES FEW OR NO CLOUDS BELOW 12,000 FEET
WITH NO SIGNIFICANT WEATHER AND/OR OBSTRUCTIONS TO VISIBILITY.

KYZ001>023-026-027-061>063-070>075-280300-
WESTERN AND SOUTH CENTRAL KENTUCKY

CITY           SKY/WX    TMP DP  RH WIND       PRES   REMARKS
PADUCAH        PTCLDY    83  66  56 NW5       29.88R
HENDERSON      PTCLDY    81  61  50 NW12G17   29.87R
OWENSBORO      PTCLDY    82  67  60 NW14      29.86R
HOPKINSVILLE   MOCLDY    82  79  89 NW9       29.87R HX  93
BOWLING GREEN  PTCLDY    85  72  65 W10       29.85R HX  91
GLASGOW        PTCLDY    80  73  80 NW6       29.84R
$$

KYZ024-025-028>034-038-045-046-053-280300-
NORTH CENTRAL KENTUCKY

CITY           SKY/WX    TMP DP  RH WIND       PRES   REMARKS
LOUISVILLE/SDF PTCLDY    76  70  82 W13       29.81R
LOUISVILLE/LOU MOCLDY    82  67  60 NW17G30   29.81R
FORT KNOX      MOCLDY    77  68  73 W16G22    29.83R
$$

KYZ035>037-039>044-047>052-055>060-089>105-280300-
NORTHEAST KENTUCKY

CITY           SKY/WX    TMP DP  RH WIND       PRES   REMARKS
LEXINGTON      CLEAR     80  66  62 W9        29.80R
COVINGTON      PTCLDY    70  67  90 W8        29.79R
FRANKFORT      LGT RAIN  78  67  68 VRB7      29.79R
$$

KYZ054-064>069-076>088-106>120-280300-
SOUTHEAST KENTUCKY

CITY           SKY/WX    TMP DP  RH WIND       PRES   REMARKS
JACKSON        PTCLDY    72  70  93 VRB3      29.83R FOG
LONDON         MOCLDY    74  69  85 CALM      29.85R
SOMERSET       CLOUDY    77  73  88 W8        29.85R
MIDDLESBORO    CLOUDY    70  69  96 E3        29.90R
MONTICELLO     CLOUDY    74  71  90 W7        29.87R
$$




USA.gov is the U.S. government's official web portal to all federal, state and local government web resources and services.